NOAA 16 DEB, 41076

Orbit data source: Space-Track

NOAA 16 DEB, 41076 is space debris in LEO originally from a launch on Thu, 21 Sep 2000 UTC launched from the Air Force Western Test Range (AFWTR). Debris objects in space refer to the collection of defunct objects orbiting the Earth. Examples of debris include non-operational satellites, rocket bodies, and fragments generated from explosions, collisions, or faulty payload assembly.

Loading next visibility...
NOAA 16 DEB details
Identifier
41076, 2000-055AK
Orbit
LEO
Last TLE update9 hours ago
Origin
Flag of USNOAA (US)
ManufacturerUnknown
MissionSpacecraft
Bus & MotorUnknown
MassUnknown
Launch date (UTC)
2000-09-21 (24 years ago)
Launch vehicleUnknown
Launch site
Air Force Western Test Range (AFWTR)
Object type
Payload
Rocket body
Debris
Shape & HBRUnknown
Radar Cross SectionSmall (<0.1 m²)

Expand to show TLE details & history

TLE from 9 hours ago
0 NOAA 16 DEB
1 41076U 00055AK  24340.07218304  .00060379  00000-0  51802-2 0  9999
2 41076  99.1730  97.0044 0123914 167.2059 193.2349 14.91433024481154
Epoch: 2024-12-05T01:43Z
Definitive object data (Epoch: 2024-12-05T01:43:56.614Z)
Latitude-0.00005°
Longitude-3.33972°
Altitude680.629 km
Speed7.471 km/s
True Right ascension06h 28m 01s
True Declination0° 00' 00"
Sunlit
Object was in full shadow at TLE epoch
Visualization TLE readout
Latitude76.29248°
Longitude-141.74836°
Altitude569.931 km
Speed7.603 km/s
Apparent Right ascension20h 28m 01s
Apparent Declination22° 13' 14"
Sunlit
Object is in daylight
Visualization observer readout
Local Sidereal Time08:12:29
Azimuth355.937° N
Elevation-27.758°
Doppler factor1
Orbital elements
Apogee altitude676.905 km
Perigee altitude504.201 km
Semi-major axis6,968.69 km
Eccentricity0.0123914
Inclination99.173°
RAAN97.0044°
Arg. of periapsis167.2059°
True anomaly192.91464°
Mean anomaly193.2349°
Eccentric anomaly193.07429°
Mean motion3.73092 °/min
BSTAR0.0051802
Orbital period96.49 mins
Loading maneuver chart data...
Loading historical data...
Loading historical data...
Loading historical data...
Loading historical data...
Loading historical data...
Loading historical data...
Loading historical data...

NOAA 16 DEB Visibility forecast

Observer location: undefined°, undefined

Span
Click to sort rows by Start time (UTC) header in descending order
Start Az.
Max El. time (UTC)
Max El. Az.
Max El.
End time (UTC)
End Az.
5 mins2024-12-05 21:38:07.680Z338.445° N2024-12-05 21:40:07.680Z289.943° WNW26.028°2024-12-05 21:43:07.680Z231.489° WSW
4 mins2024-12-06 06:53:07.680Z95.692° ESE2024-12-06 06:55:07.680Z63.512° ENE17.303°2024-12-06 06:57:07.680Z31.69° NE
7 mins2024-12-06 08:27:07.680Z195.096° SSW2024-12-06 08:30:07.680Z258.297° W33.793°2024-12-06 08:34:07.680Z330.275° NNW
|